Home > Weather > Belfast > Past weeks

Flag for United Kingdom Past Weather in Belfast, Northern Ireland, United Kingdom — Yesterday and Last 2 Weeks

Now
61 °F

Scattered clouds.


Feels Like: 61 °F
Forecast: 50 / 67 °F
Wind: 6 mph from Southeast

Location: Belfast / Harbour

Current Time: Aug 24, 2016 at 10:51:06 PM

Latest Report: Aug 24, 2016 at 9:20 PM


Visibility: N/A

Pressure: 30.12 "Hg

Humidity: 72%

Dew Point: 52 °F

Location of BelfastLocation

Past Weather in Belfast — Graph

°F

Belfast Temperature Yesterday

Maximum temperature yesterday: 64 °F (at 12:50 PM)
Minimum temperature yesterday: 57 °F (at 6:20 AM)
Average temperature yesterday: 61 °F

High & Low Weather Summary for the Past Weeks

 TemperatureHumidityPressure
High72 °F (Aug 16, 11:50 AM)100% (Aug 15, 7:20 AM)30.30 "Hg (Aug 15, 7:20 AM)
Low54 °F (Aug 10, 6:20 AM)46% (Aug 24, 1:20 PM)29.18 "Hg (Aug 20, 8:20 AM)
Average62 °F79%29.97 "Hg
* Reported Aug 10 6:20 AM — Aug 24 9:20 PM, Belfast, Weather by CustomWeather, © 2016

Note: Actual official high and low records may vary slightly from our data, if they occured in-between our weather recording intervals... More about our weather records

Advertising

Belfast Weather History for the Previous 24 Hours

Scroll right to see more
 ConditionsComfort  
Time TempWeatherWind HumidityBarometerVisibility
9:20 PM
Wed, Aug 24
61 °FScattered clouds.6 mph72%30.12 "HgN/A
8:50 PM61 °FScattered clouds.8 mph72%30.12 "HgN/A
8:20 PM61 °FScattered clouds.8 mph77%30.12 "HgN/A
7:50 PM63 °FScattered clouds.8 mph73%30.12 "HgN/A
7:20 PM64 °FPassing clouds.8 mph68%30.12 "HgN/A
6:50 PM64 °FScattered clouds.8 mph68%30.12 "HgN/A
6:20 PM66 °FScattered clouds.9 mph64%30.12 "HgN/A
5:50 PM66 °FBroken clouds.10 mph68%30.12 "HgN/A
5:20 PM68 °FBroken clouds.7 mph53%30.12 "HgN/A
4:50 PM68 °FBroken clouds.7 mph53%30.12 "HgN/A
4:20 PM70 °FScattered clouds.5 mph50%30.12 "HgN/A
3:50 PM68 °FScattered clouds.5 mph53%30.15 "HgN/A
3:20 PM70 °FScattered clouds.5 mph50%30.15 "HgN/A
2:50 PM68 °FScattered clouds.5 mph49%30.15 "HgN/A
2:20 PM68 °FPassing clouds.5 mph46%30.15 "HgN/A
1:50 PM68 °FPassing clouds.6 mph46%30.15 "HgN/A
1:20 PM68 °FPassing clouds.6 mph46%30.15 "HgN/A
12:50 PM66 °FPassing clouds.5 mph52%30.15 "HgN/A
12:20 PM66 °FPassing clouds.6 mph52%30.15 "HgN/A
11:50 AM64 °FPassing clouds.6 mph60%30.15 "HgN/A
11:20 AM63 °FPassing clouds.5 mph68%30.15 "HgN/A
10:50 AM63 °FPassing clouds.3 mph73%30.15 "HgN/A
10:20 AM59 °FPassing clouds.2 mph82%30.15 "HgN/A
9:50 AM55 °FScattered clouds.3 mph94%30.15 "HgN/A
9:20 AM54 °FPartly sunny.3 mph100%30.15 "Hg5 mi
8:50 AM54 °FFog.6 mph100%30.15 "Hg1 mi
8:20 AM54 °FFog.5 mph100%30.15 "Hg1 mi
7:50 AM54 °FFog.6 mph100%30.15 "Hg1 mi
7:20 AM54 °FFog.5 mph100%30.15 "Hg0 mi
6:50 AM54 °FFog.6 mph100%30.12 "Hg0 mi
6:20 AM54 °FRain. Overcast.3 mph100%30.12 "HgN/A
Weather by CustomWeather, © 2016

See weather overviewHow to use our weather pages